Location: Unspecified
(48.5670°N, 0.0000°E)
Time: 19:57:24
(UTC+00:00)

Explorer 7 - Visible Passes

Search period start: 21 July 2019 00:00
Search period end: 31 July 2019 00:00
Orbit: 485 x 680 km, 50.3° (Epoch: 21 July)

Date Brightness Start Highest point End Pass type
(mag) Time Alt. Az. Time Alt. Az. Time Alt. Az.
21 Jul 6.9 01:06:13 10° W 01:09:58 67° N 01:13:50 10° E visible
21 Jul 6.6 02:46:43 10° WNW 02:50:30 64° SSW 02:54:27 10° ESE visible
21 Jul 6.9 21:50:34 10° SW 21:54:06 39° SSE 21:57:38 10° E visible
21 Jul 6.6 23:30:41 10° W 23:34:27 76° N 23:38:15 10° ENE visible
22 Jul 6.8 01:11:20 10° WNW 01:15:06 73° N 01:18:59 10° E visible
22 Jul 6.9 02:51:51 10° WNW 02:55:31 46° SSW 02:59:20 10° SE visible
22 Jul 6.6 21:55:23 10° SW 21:59:05 56° SSE 22:02:46 10° ENE visible
22 Jul 6.8 23:35:49 10° W 23:39:34 68° N 23:43:21 10° ENE visible
23 Jul 6.5 01:16:26 10° WNW 01:20:12 85° N 01:24:06 10° ESE visible
23 Jul 7.3 02:57:03 10° W 03:00:28 32° SSW 03:04:02 10° SSE visible
23 Jul 6.4 22:00:21 10° WSW 22:04:07 76° SSE 22:07:53 10° ENE visible
23 Jul 6.9 23:40:58 10° W 23:44:42 65° N 23:48:29 10° E visible
24 Jul 6.4 01:21:31 10° WNW 01:25:17 77° SSW 01:29:10 10° ESE visible
24 Jul 7.8 03:02:24 10° W 03:05:23 22° SW 03:08:28 10° SSE visible
24 Jul 7.4 20:25:32 10° SSW 20:28:57 31° SSE 20:32:18 10° E visible
24 Jul 6.5 22:05:24 10° WSW 22:09:12 85° NNW 22:12:58 10° ENE visible
24 Jul 6.8 23:46:05 10° WNW 23:49:50 68° N 23:53:10 13° E visible
25 Jul 7.3 01:26:37 10° WNW 01:34:40 - SE 01:29:08 38° W visible
25 Jul 8.6 03:11:35 12° SSW 03:11:35 12° SSW 03:12:24 10° S visible
25 Jul 6.9 20:30:14 10° SW 20:33:54 45° SSE 20:37:30 10° ENE visible
25 Jul 6.7 22:10:31 10° W 22:14:18 73° N 22:18:04 10° ENE visible
25 Jul 6.6 23:51:12 10° WNW 23:54:57 76° NNE 23:55:35 58° ENE visible
26 Jul 9.1 01:31:45 10° W 01:31:49 10° W 01:31:49 10° W visible
26 Jul 6.6 20:35:06 10° WSW 20:38:55 63° SSE 20:42:38 10° ENE visible
26 Jul 6.9 22:15:40 10° W 22:19:25 66° N 22:23:08 10° E visible
26 Jul 6.8 23:56:16 10° WNW 23:59:25 60° WNW 23:59:25 60° WNW visible
27 Jul 6.5 20:40:06 10° WSW 20:43:57 83° SSE 20:47:44 10° ENE visible
27 Jul 6.9 22:20:48 10° W 22:24:33 66° N 22:27:15 18° E visible
28 Jul 7.8 00:01:22 10° WNW 00:03:31 32° W 00:03:31 32° W visible
28 Jul 6.7 20:45:11 10° W 20:49:02 80° NNW 20:52:49 10° ENE visible
28 Jul 6.8 22:25:55 10° WNW 22:29:41 70° N 22:31:28 29° E visible
29 Jul 8.5 00:06:28 10° WNW 00:07:46 20° W 00:07:46 20° W visible
29 Jul 6.9 20:50:19 10° W 20:54:09 70° N 20:57:54 10° ENE visible
29 Jul 6.6 22:31:01 10° WNW 22:34:47 80° N 22:35:47 47° E visible
30 Jul 9.1 00:11:39 10° W 00:12:05 13° W 00:12:05 13° W visible
30 Jul 6.9 20:55:27 10° W 20:59:17 66° N 21:03:01 10° E visible
30 Jul 6.4 22:36:06 10° WNW 22:39:53 83° SSW 22:40:10 74° SE visible
